Location: Chihuahua
(28.6330°N, 106.0830°W)
Time: 03:45:20
(UTC-07:00)

Daily predictions for brighter satellites

Satellite Brightness Start Highest point End
(mag) Time Altitude Azimuth Time Altitude Azimuth Time Altitude Azimuth
Cosmos 2360 Rocket 4.4 00:20:26 10° NNE 00:23:00 19° NE 00:23:00 19° NE
Cosmos 2322 Rocket 4.3 00:28:16 10° NNW 00:30:12 22° NNW 00:30:12 22° NNW
NOSS 3-1 (C) 4.5 00:54:34 10° NNW 01:00:33 57° NNW 01:00:33 57° NNW
ATLAS 3B CENTAUR R/B 4.0 00:41:04 10° WSW 01:05:49 76° SSE 01:13:59 10° E
Lacrosse 5 rocket 4.4 01:17:08 10° N 01:18:04 14° N 01:18:04 14° N
NOSS 3-1 (A) 4.3 01:25:10 10° NNW 01:31:27 60° NW 01:31:27 60° NW
Cosmos 2227 Rocket 3.8 01:35:24 28° ENE 01:35:24 28° ENE 01:38:50 10° NE
Lacrosse 5 4.4 01:36:31 14° NNW 01:36:31 14° NNW 01:38:17 10° N
ARIANE 5 R/B 4.3 01:40:58 10° NE 01:44:04 25° ENE 01:44:04 25° ENE
Cosmos 2219 4.5 01:52:43 33° NNW 01:52:43 33° NNW 01:56:06 10° N
ADEOS Rocket 3.8 01:46:07 10° NNE 01:53:30 58° E 01:54:18 56° SE
COSMOS 2428 3.5 01:49:36 10° NNW 01:53:57 48° NNE 01:53:57 48° NNE
Cosmos 2233 Rocket 4.1 02:00:32 10° N 02:06:15 73° NNE 02:06:15 73° NNE
Cosmos 2360 Rocket 4.3 02:03:33 10° NW 02:04:43 16° NW 02:04:43 16° NW
Cosmos 1151 Rocket 4.5 02:20:14 10° N 02:22:47 34° NNE 02:22:47 34° NNE
CZ-3 R/B 4.4 01:20:05 10° WSW 02:27:10 88° S 02:40:11 10° E
GOES 2 Rocket 4.4 02:27:29 61° S 02:27:46 62° SSE 02:34:32 10° E
Resurs 1-4 Rocket 2.2 02:23:04 10° NNE 02:27:46 71° N 02:27:46 71° N
Cosmos 2333 Rocket 2.8 02:23:12 10° N 02:28:45 53° ENE 02:31:07 32° SE
IRS-1D 3.7 02:24:04 10° NNE 02:28:48 70° N 02:28:48 70° N
UNK 4.3 02:33:15 55° NNE 02:33:15 55° NNE 02:36:58 10° N
CZ-2D R/B 2.2 02:27:35 10° N 02:32:11 69° N 02:32:11 69° N
UNKNOWN OBJECT B 4.3 02:29:13 10° NNE 02:32:06 34° ENE 02:32:06 34° ENE
Cosmos 1464 Rocket 4.5 02:27:17 10° N 02:33:18 55° E 02:35:45 34° SE
SL-16 R/B 2.4 02:37:30 61° SSE 02:38:43 87° ENE 02:44:53 10° NNW
Cosmos 2297 Rocket 2.1 02:40:46 76° WNW 02:40:46 76° WNW 02:46:21 10° NNE
MOS 1 Rocket 4.3 02:37:55 10° NNE 02:42:54 47° E 02:44:10 40° SE
ADEOS 3.6 02:38:03 10° N 02:42:52 66° NW 02:42:52 66° NW
Cosmos 1980 4.2 02:42:12 10° N 02:47:48 59° ENE 02:52:50 13° SSE
Cosmos 1626 4.0 02:49:54 24° NNW 02:49:54 24° NNW 02:51:35 10° N
FUSE 4.3 02:50:18 51° SE 02:50:18 51° SE 02:54:38 10° E
Cosmos 1850 Rocket 4.0 02:54:09 64° WNW 02:54:09 64° WNW 02:59:15 10° N
CZ-3B DEB 4.5 02:47:40 36° SSW 02:55:03 77° ESE 03:09:57 10° NE
GPS 2-04 Rocket1 4.4 02:54:10 27° NNW 02:55:10 30° N 02:58:57 10° ENE
Cosmos 2219 Rocket 2.0 02:49:44 10° NNW 02:55:22 68° WSW 02:55:32 67° WSW
Cosmos 1805 Rocket 3.6 02:56:02 77° N 02:56:02 77° N 03:00:10 10° N
Aureole 2 Rocket 3.5 02:51:53 10° N 02:55:52 54° ENE 02:56:29 49° ESE
Hubble Space Telescope 2.1 02:58:41 32° ESE 02:58:41 32° ESE 03:01:02 10° ESE
Cosmos 1741 Rocket 4.0 02:57:43 62° W 02:57:52 62° WNW 03:03:08 10° N
Okean O Rocket 4.0 02:58:02 10° NE 03:01:03 18° E 03:04:03 10° SE
NOSS 0 Rocket 3.8 02:57:39 10° NNW 03:03:52 79° WSW 03:07:55 23° SSE
SL-16 R/B 4.1 03:00:39 10° N 03:05:32 29° ENE 03:10:24 10° SE
Cosmos 2237 Rocket 2.2 03:02:10 10° NNW 03:07:48 83° ENE 03:13:24 10° SSE
USA 161 4.3 03:13:32 12° NNE 03:13:32 12° NNE 03:13:46 10° NNE
Cosmos 1570 Rocket 4.4 03:10:34 10° N 03:15:54 65° ENE 03:21:10 10° SSE
Cosmos 2227 Rocket 3.4 03:17:14 25° WNW 03:17:50 26° WNW 03:22:30 10° N
ATLAS 5 CENTAUR R/B 4.3 03:21:54 10° SE 03:23:31 12° ESE 03:25:09 10° E
ARIANE 5 R/B 3.7 03:20:12 10° NNW 03:24:12 24° WNW 03:24:24 24° WNW
ATLAS 2AS CENTAUR R/B 2.8 03:16:43 10° NW 03:24:20 60° WSW 03:31:16 10° S
Cosmos 1633 Rocket 2.9 03:25:57 50° SSW 03:26:59 71° W 03:31:21 10° N
Cosmos 2034 Rocket 4.0 03:22:30 10° NNW 03:28:47 67° W 03:33:21 20° S
Cosmos 1869 3.2 03:28:56 10° N 03:32:57 86° E 03:35:20 24° S
Cosmos 1816 Rocket 4.5 03:29:44 27° SSW 03:33:21 70° W 03:39:41 10° N
Tsikada Rocket 4.1 03:30:57 30° SSW 03:33:57 57° W 03:40:14 10° N
Sich 1 3.4 03:33:29 41° WSW 03:34:14 45° W 03:38:27 10° N
USA 215 3.4 03:31:08 10° NE 03:37:39 68° SE 03:42:03 22° SSW
BREEZE-M R/B 3.7 03:34:33 28° SW 03:38:45 88° NW 03:42:52 10° NE
Cosmos 2346 Rocket 4.4 03:36:26 17° S 03:41:21 82° W 03:47:37 10° N
SL-24 R/B 4.0 03:38:12 10° N 03:41:56 49° WNW 03:42:48 40° WSW
Cosmos 2263 Rocket 4.4 03:42:16 10° SSE 03:46:24 22° E 03:50:32 10° NE
DELTA 2 R/B (1) 4.5 03:42:52 18° W 03:46:33 41° NNW 03:51:47 10° NE
Cosmos 1455 3.5 03:46:40 10° NW 03:49:24 23° W 03:49:24 23° W
Cosmos 1486 Rocket 4.1 03:45:51 16° S 03:50:01 76° ESE 03:55:13 10° NNE
Lacrosse 4 Rocket 1.6 03:49:17 32° WSW 03:50:49 49° WNW 03:54:51 10° N
Cosmos 2242 Rocket 3.7 03:46:29 10° N 03:50:57 80° E 03:55:28 10° S
ATLAS 3B CENTAUR R/B 2.2 03:40:52 10° W 03:51:18 82° S 03:55:11 10° E
In-Cosmos 22 Rocket 4.3 03:47:20 10° S 03:52:41 70° E 03:57:58 10° NNE
PSLV R/B 3.8 03:49:00 10° N 03:53:00 69° WNW 03:55:24 22° SSW
MOZ.5/SAFIR/RUBIN 5/SL-8 4.5 03:53:53 24° SW 03:55:51 33° W 04:00:07 10° NW
Landsat 4 3.6 03:55:13 10° SSE 03:58:58 87° WSW 04:02:47 10° NNW
Cosmos 2208 Rocket 4.2 03:54:12 10° NNW 03:59:11 48° WSW 04:04:13 10° S
PSLV R/B 3.4 04:01:36 10° N 04:05:50 82° WNW 04:10:00 10° SSW
Cosmos 2333 Rocket 3.7 04:09:27 10° WNW 04:12:26 15° W 04:12:58 14° WSW
Cosmos 220 Rocket 4.0 04:11:27 12° SSW 04:15:28 68° WNW 04:19:54 10° N
GPS 2-15 Rocket1 4.4 04:14:06 16° SW 04:16:31 24° S 04:20:16 10° SE
Cosmos 1933 3.3 04:13:52 10° N 04:17:57 79° W 04:22:02 10° S
GOES 2 Rocket 4.0 04:15:07 10° W 04:22:52 88° S 04:28:34 10° E
ADEOS II 2.5 04:18:43 10° N 04:23:41 43° WNW 04:28:37 10° SW
Cosmos 468 Rocket 3.9 04:18:36 10° NNW 04:23:44 67° WSW 04:28:48 10° S
Cosmos 1933 Rocket 4.4 04:22:21 11° SW 04:26:07 32° W 04:30:07 10° NNW
GPS 2-17 Rocket1 4.1 04:23:42 13° SW 04:26:46 27° S 04:30:26 10° ESE
Cosmos 1862 Rocket 3.5 04:22:39 10° NNW 04:26:54 59° W 04:31:08 10° S
Cosmos 1503 Rocket 4.1 04:22:43 10° SSW 04:28:03 87° ESE 04:33:21 10° NNE
Cosmos 371 Rocket 3.6 04:27:14 10° NNW 04:32:02 74° ENE 04:36:49 10° SSE
MTI 3.9 04:29:54 10° SSE 04:33:05 78° ENE 04:36:18 10° N
CZ-2C R/B 3.9 04:28:41 10° SSE 04:33:15 83° ENE 04:37:55 10° N
Meteor 2-3 Rocket 3.7 04:29:08 10° SSW 04:34:45 74° W 04:40:27 10° N
GPS 2-04 Rocket1 3.9 04:31:24 10° WNW 04:35:31 46° NNE 04:39:41 10° E
FUSE 4.3 04:30:29 10° W 04:35:33 46° S 04:40:37 10° ESE
Okean O Rocket 2.7 04:33:43 10° NNW 04:37:20 26° WNW 04:40:56 10° SW
Hubble Space Telescope 1.9 04:34:27 10° W 04:37:54 25° SSW 04:41:19 10° SSE
Meteor 2-10 Rocket 3.4 04:33:27 10° NNW 04:38:23 63° W 04:43:22 10° S
Cosmos 1634 Rocket 4.3 04:33:18 10° NNW 04:39:06 44° W 04:44:53 10° SSW
GP-B 3.8 04:36:46 10° NNW 04:40:47 34° W 04:44:48 10° SSW
CZ-4B R/B 4.5 04:38:32 10° NNW 04:41:54 22° WNW 04:45:09 10° WSW
Cosmos 1814 Rocket 4.1 04:37:15 10° NNW 04:42:32 64° WSW 04:47:48 10° S
Cosmos 1400 Rocket 3.7 04:39:12 10° SW 04:42:35 29° WNW 04:46:00 10° NNW
Cosmos 2279 Rocket 4.0 04:39:24 10° N 04:45:35 73° W 04:51:47 10° S
